SWARM A

Last updated on Tue Jul 01 2025 00:03:31 GMT+0000 (Coordinated Universal Time)

1 39452U 13067B 25181.57857948 .00005610 00000+0 12810-3 0 9996 2 39452 87.3413 185.7785 0003216 91.2958 268.8667 15.42613412651901
UTC large
Height (km)
Speed (km/s)
/
Latitude / Longitude
Inclination (degrees)
Orbital Period (minutes)
Azimuth
Elevation
Range (km)
Doppler Factor

Next 0 passes for location: London (51.5072 / 0.1276)

Sorry there are no passes over London.